Location: Miles
(41.4492°N, 81.6087°W)
Time: 04:23:47
(UTC+00:00)

S-56A Canister/Altair - Pass Details

Date: 19 September 2024
Orbit: 636 x 2487 km, 38.9° (Epoch: 11 October)

Event Time Altitude Azimuth Distance (km) Brightness Sun altitude
Rises 01:42:16 0° 271° (W) 3,373 11.9 -24.8°
Reaches altitude 10° 01:44:25 10° 269° (W) 2,594 11.0 -25.2°
Maximum altitude 01:50:34 70° 187° (S) 1,242 8.3 -26.2°
Enters shadow 01:52:30 53° 126° (SE) 1,528 8.5 -26.5°
